STARLINK-36674

Last updated on Thu Mar 05 2026 00:02:08 GMT+0000 (Coordinated Universal Time)

1 67661U 26022P 26063.05671725 .00172286 00000+0 11294-2 0 9992 2 67661 97.2848 96.7768 0000869 103.9185 256.2177 15.75259766 4668
UTC large
Height (km)
Speed (km/s)
/
Latitude / Longitude
Inclination (degrees)
Orbital Period (minutes)
Azimuth
Elevation
Range (km)
Doppler Factor

Next 0 passes for location: London (51.5072 / 0.1276)

Sorry there are no passes over London.